This is the latest recevied weather packets stored in our database for station/object KF7ROW. If no packets are shown the sender has not sent any weather packets the latest 10 day(s).
| Time | Temp. | Humidity | Pressure | Rain* | Wind** | Luminosity | Snow |
|---|---|---|---|---|---|---|---|
| 1777741381 | 11.67° C | 83% | 1020.3 hPa | 0 mm | - | 244 W/m² | - |
| 1777741077 | 12.22° C | 82% | 1020.4 hPa | 0 mm | - | 176 W/m² | - |
| 1777740774 | 11.67° C | 83% | 1020.4 hPa | 0 mm | - | 239 W/m² | - |
| 1777740471 | 11.67° C | 84% | 1020.5 hPa | 0 mm | - | 222 W/m² | - |
| 1777740169 | 11.67° C | 84% | 1020.4 hPa | 0 mm | - | 158 W/m² | - |
| 1777739864 | 11.67° C | 84% | 1020.4 hPa | 0 mm | - | 148 W/m² | - |
| 1777739561 | 11.67° C | 84% | 1020.4 hPa | 0 mm | - | 113 W/m² | - |
| 1777739258 | 11.67° C | 84% | 1020.3 hPa | 0 mm | - | 130 W/m² | - |
| 1777738955 | 11.67° C | 84% | 1020.5 hPa | 0 mm | - | 166 W/m² | - |
| 1777738652 | 11.67° C | 85% | 1020.4 hPa | 0 mm | - | 158 W/m² | - |
| 1777738348 | 11.11° C | 85% | 1020.3 hPa | 0 mm | - | 160 W/m² | - |
| 1777738046 | 11.11° C | 85% | 1020.5 hPa | 0 mm | - | 117 W/m² | - |
| 1777737745 | 11.67° C | 85% | 1020.3 hPa | 0 mm | - | 106 W/m² | - |
| 1777737444 | 11.67° C | 85% | 1020.6 hPa | 0 mm | - | 91 W/m² | - |
| 1777737140 | 11.11° C | 84% | 1020.4 hPa | 0 mm | - | 105 W/m² | - |
| 1777736836 | 11.11° C | 85% | 1020.5 hPa | 0 mm | - | 84 W/m² | - |
| 1777736218 | 11.11° C | 85% | 1020.8 hPa | 0 mm | - | 64 W/m² | - |
| 1777735915 | 11.11° C | 85% | 1020.8 hPa | 0 mm | - | 65 W/m² | - |
| 1777735612 | 11.11° C | 85% | 1020.9 hPa | 0 mm | - | 56 W/m² | - |
| 1777735309 | 11.11° C | 84% | 1020.9 hPa | 0 mm | - | 52 W/m² | - |
| 1777735007 | 11.11° C | 85% | 1020.9 hPa | 0 mm | - | 46 W/m² | - |
| 1777734704 | 11.11° C | 85% | 1021 hPa | 0 mm | - | 42 W/m² | - |
| 1777734401 | 11.11° C | 86% | 1020.9 hPa | 0 mm | - | 47 W/m² | - |
| 1777734097 | 11.11° C | 86% | 1020.8 hPa | 0 mm | - | 47 W/m² | - |
| 1777733794 | 11.11° C | 86% | 1020.8 hPa | 0 mm | - | 43 W/m² | - |
* Rain latest hour (hover to see other rain measurements)
** Current wind speed in m/s (hover to see current wind gust speed)